User: anonymous   Login
Location: Deuil
(48.9767°N, 2.3272°E)
Time: 23:09:47
(UTC+00:00)
Language:

COSMOS 2251 DEB - Orbit

View from above orbital plane
View from above orbital plane
View from above satellite
View from above satellite

Ground track
Ground track

The orbit data is extracted from the following two-line orbital elements,

1 33901U 93036DE  22222.27296247  .00002465  00000-0  47142-3 0  9994
2 33901  73.7885 325.5729 0112034 319.5878  39.7001 14.60535356714775
Epoch (UTC): 10 August 2022 06:33:03
Eccentricity: 0.0112034
inclination: 73.7885°
perigee height: 612 km
apogee height: 770 km
right ascension of ascending node: 325.5729°
argument of perigee: 319.5878°
revolutions per day: 14.60535356
mean anomaly at epoch: 39.7001°
orbit number at epoch: 71477

The dashed part of the orbit path shows where the satellite is in the earth's shadow,  

DLR